EW1736 Weather Reports


Display with metric or nautical units.
time (UTC)temp
F
wind
direction
speed
MPH
gust
MPH
rain 1hr
in
rain 24hr
in
rain mn
in
humidity
%
barometer
mb
20260509130352 59 295 8.0 13.0 0.00 0.19 0.00 91 1003.2
20260509124152 59 288 9.0 14.0 0.00 0.21 0.00 91 1003.4
20260509124102 59 286 9.0 16.0 0.00 0.21 0.00 91 1003.5
20260509121144 59 275 13.0 17.0 0.00 0.21 0.00 91 1003.8
20260509115640 60 268 9.0 19.0 0.00 0.21 0.21 91 1003.6
20260509114139 60 236 14.0 20.0 0.00 0.21 0.21 91 1003.4
20260509112635 60 262 12.0 14.0 0.00 0.21 0.21 92 1003.6
20260509111131 59 261 6.0 9.0 0.00 0.21 0.21 92 1003.4
20260509105632 59 314 3.0 9.0 0.00 0.21 0.21 92 1003.4
20260509104127 59 274 6.0 9.0 0.00 0.21 0.21 92 1003.5
20260509102627 59 242 1.0 3.0 0.00 0.21 0.21 92 1003.5
20260509101124 59 304 0.0 3.0 0.00 0.21 0.21 91 1003.6
20260509095619 59 298 4.0 9.0 0.00 0.21 0.21 91 1003.9
20260509094119 59 338 5.0 10.0 0.00 0.21 0.21 91 1004.0
20260509092615 60 275 5.0 10.0 0.00 0.22 0.21 91 1004.1
20260509091111 60 299 5.0 9.0 0.00 0.22 0.21 90 1004.1
20260509085612 60 285 2.0 8.0 0.00 0.22 0.21 89 1004.2
20260509084107 60 273 5.0 13.0 0.00 0.22 0.21 89 1004.2
20260509082607 61 282 10.0 15.0 0.00 0.22 0.21 89 1004.1
20260509081104 61 297 9.0 12.0 0.00 0.22 0.21 90 1003.8
20260509075603 60 307 4.0 6.0 0.00 0.22 0.21 90 1003.8
20260509074101 60 299 2.0 5.0 0.00 0.22 0.21 89 1003.8
20260509072555 60 296 4.0 8.0 0.00 0.22 0.21 90 1003.8
20260509071056 60 288 3.0 7.0 0.00 0.22 0.21 89 1003.8
20260509065550 60 291 4.0 7.0 0.00 0.22 0.21 89 1003.8
20260509064739 61 288 4.0 7.0 0.00 0.22 0.21 89 1003.8
20260509062542 61 295 5.0 8.0 0.00 0.22 0.21 88 1003.7
20260509061043 62 315 3.0 4.0 0.00 0.23 0.21 86 1003.5
20260509055540 62 327 3.0 4.0 0.00 0.23 0.21 86 1003.5
20260509054033 62 290 4.0 7.0 0.00 0.23 0.21 85 1003.3
20260509052529 63 302 2.0 9.0 0.00 0.23 0.21 85 1003.4
20260509051025 64 260 10.0 14.0 0.00 0.23 0.21 85 1003.6
20260509050225 65 246 10.0 14.0 0.00 0.23 0.21 85 1003.6
20260509044021 65 258 8.0 12.0 0.00 0.23 0.21 85 1003.6
20260509042521 65 331 3.0 8.0 0.00 0.23 0.21 85 1003.5
20260509042416 65 299 4.0 8.0 0.00 0.23 0.21 83 1003.6
20260509035518 65 285 3.0 15.0 0.00 0.23 0.21 83 1003.8
20260509034013 65 270 4.0 10.0 0.00 0.23 0.21 82 1003.8
20260509032513 66 261 8.0 16.0 0.00 0.23 0.21 80 1003.8
20260509031009 68 264 11.0 16.0 0.00 0.23 0.21 78 1003.8
20260509025509 68 273 3.0 10.0 0.00 0.23 0.21 80 1003.8
20260509024701 67 294 6.0 11.0 0.00 0.23 0.21 79 1003.8
20260509022504 67 292 8.0 15.0 0.00 0.23 0.21 81 1004.1
20260509021001 65 297 12.0 18.0 0.00 0.23 0.21 83 1004.3
20260509015457 67 254 9.0 15.0 0.01 0.23 0.21 82 1004.4
20260509013957 67 269 11.0 14.0 0.01 0.23 0.21 82 1004.3
20260509012454 66 253 6.0 14.0 0.01 0.23 0.21 85 1004.3
20260509010952 66 247 7.0 14.0 0.01 0.24 0.21 86 1004.7
20260509005449 64 266 13.0 24.0 0.00 0.26 0.20 84 1004.7
20260509003945 67 250 14.0 17.0 0.00 0.26 0.20 80 1005.0
20260509002440 68 284 9.0 18.0 0.00 0.26 0.20 77 1005.2
20260509000936 69 244 12.0 16.0 0.00 0.26 0.20 77 1005.4
20260508235438 69 277 9.0 15.0 0.00 0.26 0.20 78 1005.6
20260508233932 68 286 9.0 15.0 0.00 0.26 0.20 79 1005.8
20260508232433 67 251 9.0 17.0 0.00 0.27 0.20 81 1005.9
20260508230928 66 266 13.0 18.0 0.00 0.27 0.20 81 1006.2
20260508225424 66 266 8.0 16.0 0.00 0.27 0.20 84 1006.4
20260508223926 65 313 7.0 15.0 0.00 0.27 0.20 85 1006.6
20260508222420 65 268 5.0 10.0 0.00 0.28 0.20 85 1006.8
20260508220921 65 288 8.0 14.0 0.00 0.28 0.20 85 1006.9
20260508215416 65 293 7.0 14.0 0.00 0.28 0.20 86 1007.0
20260508213917 65 290 4.0 9.0 0.00 0.28 0.20 88 1007.1
20260508212414 64 294 4.0 8.0 0.00 0.28 0.20 90 1007.0
20260508210908 63 300 3.0 9.0 0.00 0.28 0.20 90 1007.1
20260508210056 62 275 5.0 9.0 0.00 0.28 0.20 91 1007.0
20260508203858 62 311 3.0 8.0 0.00 0.28 0.20 92 1007.0
20260508202400 62 336 3.0 6.0 0.00 0.28 0.20 92 1006.9
20260508200855 62 342 3.0 7.0 0.00 0.28 0.20 93 1007.0
20260508195351 61 29 2.0 6.0 0.00 0.28 0.20 94 1006.9
20260508193847 60 288 0.0 2.0 0.00 0.28 0.20 93 1006.7
20260508193748 60 282 2.0 4.0 0.00 0.28 0.20 93 1006.4
20260508190839 61 289 4.0 7.0 0.00 0.28 0.20 93 1006.4
20260508185333 61 317 4.0 8.0 0.00 0.28 0.20 94 1006.4
20260508183833 61 5 2.0 5.0 0.00 0.28 0.20 94 1006.5
20260508182329 61 24 2.0 4.0 0.00 0.28 0.20 94 1006.5
20260508181531 61 5 0.0 5.0 0.00 0.28 0.20 94 1006.5
20260508175325 61 114 0.0 6.0 0.00 0.28 0.20 94 1006.3
20260508174515 61 50 2.0 6.0 0.00 0.28 0.20 94 1006.4
20260508172318 61 19 2.0 13.0 0.00 0.28 0.20 94 1006.5
20260508170818 61 275 1.0 12.0 0.00 0.28 0.20 94 1006.3
20260508165313 61 269 7.0 11.0 0.00 0.28 0.20 95 1006.0
20260508163813 61 254 9.0 15.0 0.00 0.28 0.20 95 1006.0
20260508162309 60 239 6.0 9.0 0.00 0.28 0.20 95 1005.9
20260508160805 61 242 4.0 8.0 0.00 0.28 0.20 95 1006.0
20260508155301 60 240 2.0 10.0 0.00 0.28 0.20 95 1006.3
20260508153756 60 204 6.0 12.0 0.03 0.28 0.20 95 1006.4
20260508152257 60 253 4.0 13.0 0.05 0.28 0.20 96 1006.3
20260508150752 60 251 10.0 19.0 0.05 0.28 0.20 96 1006.7
20260508145248 60 279 13.0 21.0 0.13 0.28 0.20 96 1006.9
20260508143748 61 273 17.0 22.0 0.12 0.25 0.17 96 1007.1
20260508142244 61 284 9.0 15.0 0.12 0.24 0.16 97 1007.1
20260508140744 62 271 11.0 20.0 0.13 0.24 0.16 96 1007.3
20260508135239 65 305 21.0 29.0 0.06 0.15 0.08 97 1007.2
20260508134443 65 21 11.0 19.0 0.05 0.13 0.06 97 1006.8
20260508132231 65 21 11.0 21.0 0.04 0.13 0.04 97 1006.9